TimePST,TemperatureF,Dew PointF,Humidity,Sea Level PressureIn,VisibilityMPH,Wind Direction,Wind SpeedMPH,Gust SpeedMPH,PrecipitationIn,Events,Conditions,WindDirDegrees,DateUTC
12:56 AM,23.0,1.4,39,30.19,10.0,NE,9.2,-,N/A,,Clear,40,2013-12-07 08:56:00
1:58 AM,23.2,0.5,37,30.23,10.0,ENE,9.2,17.3,N/A,,Clear,60,2013-12-07 09:58:00
2:58 AM,23.7,-0.8,35,30.23,10.0,ENE,6.9,-,N/A,,Clear,60,2013-12-07 10:58:00
3:56 AM,21.2,1.4,42,30.22,10.0,NNE,5.8,-,N/A,,Clear,30,2013-12-07 11:56:00
4:58 AM,21.6,-0.2,39,30.27,10.0,NE,8.1,-,N/A,,Clear,40,2013-12-07 12:58:00
5:58 AM,21.2,1.2,42,30.29,10.0,NE,9.2,16.1,N/A,,Clear,40,2013-12-07 13:58:00
6:58 AM,20.1,4.1,50,30.31,10.0,NNE,6.9,-,N/A,,Clear,30,2013-12-07 14:58:00
7:58 AM,19.8,5.5,54,30.32,10.0,NE,4.6,-,N/A,,Clear,40,2013-12-07 15:58:00
8:58 AM,23.2,3.4,43,30.34,10.0,NE,6.9,-,N/A,,Clear,50,2013-12-07 16:58:00
9:58 AM,24.6,2.3,38,30.38,10.0,NNE,5.8,-,N/A,,Clear,30,2013-12-07 17:58:00
10:58 AM,27.1,1.6,33,30.35,10.0,NE,5.8,-,N/A,,Clear,40,2013-12-07 18:58:00
11:58 AM,28.4,1.2,31,30.35,10.0,North,11.5,-,N/A,,Clear,10,2013-12-07 19:58:00
12:58 PM,29.7,4.1,34,30.35,10.0,North,4.6,-,N/A,,Clear,10,2013-12-07 20:58:00
1:58 PM,30.2,4.6,34,30.38,10.0,North,6.9,-,N/A,,Clear,10,2013-12-07 21:58:00
2:58 PM,29.8,2.1,31,30.39,10.0,North,3.5,-,N/A,,Clear,10,2013-12-07 22:58:00
3:58 PM,27.5,4.6,38,30.38,10.0,North,4.6,-,N/A,,Clear,10,2013-12-07 23:58:00
4:58 PM,25.3,3.6,39,30.41,10.0,Calm,Calm,-,N/A,,Clear,0,2013-12-08 00:58:00
5:58 PM,20.8,5.7,52,30.42,10.0,NNE,2.3,-,N/A,,Clear,30,2013-12-08 01:58:00
6:58 PM,16.9,7.3,66,30.42,10.0,South,2.3,-,N/A,,Clear,180,2013-12-08 02:58:00
7:58 PM,15.1,7.5,72,30.43,10.0,South,3.5,-,N/A,,Clear,190,2013-12-08 03:58:00
8:58 PM,11.8,5.9,77,30.43,10.0,SSW,3.5,-,N/A,,Clear,210,2013-12-08 04:58:00
9:58 PM,12.4,7.0,79,30.44,10.0,South,5.8,-,N/A,,Clear,180,2013-12-08 05:58:00
10:58 PM,14.2,9.5,82,30.45,10.0,South,2.3,-,N/A,,Mostly Cloudy,180,2013-12-08 06:58:00
11:58 PM,13.8,10.0,85,30.45,10.0,SW,4.6,-,N/A,,Clear,220,2013-12-08 07:58:00